Time,TemperatureF,DewpointF,PressureIn,WindDirection,WindDirectionDegrees,WindSpeedMPH,WindSpeedGustMPH,Humidity,HourlyPrecipIn,Conditions,Clouds,dailyrainin,SoftwareType,DateUTC
2013-07-29 00:02:00,67.0,60.0,30.04,North,360,0.0,-999.0,78,-99.99,,,-99.99,,2013-07-29 05:02:00,
2013-07-29 00:12:00,66.0,59.0,30.04,North,360,0.0,-999.0,79,-99.99,,,-99.99,,2013-07-29 05:12:00,
2013-07-29 00:22:00,67.0,61.0,30.04,North,360,0.0,-999.0,80,-99.99,,,-99.99,,2013-07-29 05:22:00,
2013-07-29 00:32:00,67.0,61.0,30.04,North,360,0.0,-999.0,80,-99.99,,,-99.99,,2013-07-29 05:32:00,
2013-07-29 00:42:00,67.0,61.0,30.04,North,360,0.0,-999.0,81,-99.99,,,-99.99,,2013-07-29 05:42:00,
2013-07-29 00:53:00,66.0,60.0,30.04,North,360,0.0,-999.0,82,-99.99,,,-99.99,,2013-07-29 05:53:00,
2013-07-29 01:02:00,66.0,60.0,30.04,North,360,0.0,-999.0,82,-99.99,,,-99.99,,2013-07-29 06:02:00,
2013-07-29 01:12:00,66.0,61.0,30.04,North,360,0.0,-999.0,83,-99.99,,,-99.99,,2013-07-29 06:12:00,
2013-07-29 01:22:00,66.0,61.0,30.03,North,360,0.0,-999.0,83,-99.99,,,-99.99,,2013-07-29 06:22:00,
2013-07-29 01:32:00,66.0,61.0,30.03,North,360,0.0,-999.0,83,-99.99,,,-99.99,,2013-07-29 06:32:00,
2013-07-29 01:43:00,66.0,61.0,30.03,North,360,0.0,-999.0,83,-99.99,,,-99.99,,2013-07-29 06:43:00,
2013-07-29 01:52:00,66.0,60.0,30.03,North,360,0.0,-999.0,82,-99.99,,,-99.99,,2013-07-29 06:52:00,
2013-07-29 02:02:00,66.0,60.0,30.03,North,360,0.0,-999.0,82,-99.99,,,-99.99,,2013-07-29 07:02:00,
2013-07-29 02:12:00,66.0,61.0,30.03,North,360,0.0,-999.0,83,-99.99,,,-99.99,,2013-07-29 07:12:00,
2013-07-29 02:22:00,66.0,60.0,30.02,North,360,0.0,-999.0,82,-99.99,,,-99.99,,2013-07-29 07:22:00,
2013-07-29 02:33:00,66.0,60.0,30.02,North,360,0.0,-999.0,82,-99.99,,,-99.99,,2013-07-29 07:33:00,
2013-07-29 02:43:00,66.0,61.0,30.02,North,360,0.0,-999.0,85,-99.99,,,-99.99,,2013-07-29 07:43:00,
2013-07-29 02:53:00,65.0,60.0,30.02,North,360,0.0,-999.0,85,-99.99,,,-99.99,,2013-07-29 07:53:00,
2013-07-29 03:02:00,65.0,60.0,30.02,North,360,0.0,-999.0,85,-99.99,,,-99.99,,2013-07-29 08:02:00,
2013-07-29 03:12:00,65.0,61.0,30.02,North,360,0.0,-999.0,86,-99.99,,,-99.99,,2013-07-29 08:12:00,
2013-07-29 03:22:00,65.0,61.0,30.02,North,360,0.0,-999.0,87,-99.99,,,-99.99,,2013-07-29 08:22:00,
2013-07-29 03:33:00,65.0,61.0,30.02,North,360,0.0,-999.0,87,-99.99,,,-99.99,,2013-07-29 08:33:00,
2013-07-29 03:42:00,64.0,60.0,30.02,North,360,0.0,-999.0,86,-99.99,,,-99.99,,2013-07-29 08:42:00,
2013-07-29 04:02:00,64.0,60.0,30.03,North,360,0.0,-999.0,86,-99.99,,,-99.99,,2013-07-29 09:02:00,
2013-07-29 04:12:00,64.0,60.0,30.02,North,360,0.0,-999.0,88,-99.99,,,-99.99,,2013-07-29 09:12:00,
2013-07-29 04:22:00,64.0,61.0,30.02,North,360,0.0,-999.0,89,-99.99,,,-99.99,,2013-07-29 09:22:00,
2013-07-29 04:33:00,64.0,61.0,30.02,North,360,0.0,-999.0,89,-99.99,,,-99.99,,2013-07-29 09:33:00,
2013-07-29 04:43:00,64.0,61.0,30.02,North,360,0.0,-999.0,89,-99.99,,,-99.99,,2013-07-29 09:43:00,
2013-07-29 04:53:00,64.0,61.0,30.02,North,360,0.0,-999.0,89,-99.99,,,-99.99,,2013-07-29 09:53:00,
2013-07-29 05:02:00,64.0,61.0,30.02,North,360,0.0,-999.0,89,-99.99,,,-99.99,,2013-07-29 10:02:00,
2013-07-29 05:13:00,64.0,61.0,30.02,North,360,0.0,-999.0,89,-99.99,,,-99.99,,2013-07-29 10:13:00,
2013-07-29 05:23:00,64.0,61.0,30.03,North,360,0.0,-999.0,89,-99.99,,,-99.99,,2013-07-29 10:23:00,
2013-07-29 05:35:00,64.0,61.0,30.03,North,360,0.0,-999.0,89,-99.99,,,-99.99,,2013-07-29 10:35:00,
2013-07-29 05:47:00,64.0,60.0,30.03,North,360,0.0,-999.0,88,-99.99,,,-99.99,,2013-07-29 10:47:00,
2013-07-29 05:53:00,64.0,61.0,30.03,North,360,0.0,-999.0,89,-99.99,,,-99.99,,2013-07-29 10:53:00,
2013-07-29 06:04:00,64.0,61.0,30.03,North,360,0.0,-999.0,89,-99.99,,,-99.99,,2013-07-29 11:04:00,
2013-07-29 06:15:00,64.0,61.0,30.03,North,360,0.0,-999.0,89,-99.99,,,-99.99,,2013-07-29 11:15:00,
2013-07-29 06:22:00,64.0,61.0,30.05,North,360,0.0,-999.0,89,-99.99,,,-99.99,,2013-07-29 11:22:00,
2013-07-29 06:34:00,64.0,61.0,30.05,North,360,0.0,-999.0,89,-99.99,,,-99.99,,2013-07-29 11:34:00,
2013-07-29 06:44:00,64.0,61.0,30.05,North,360,0.0,-999.0,90,-99.99,,,-99.99,,2013-07-29 11:44:00,
2013-07-29 06:54:00,63.0,60.0,30.05,North,360,0.0,-999.0,90,-99.99,,,-99.99,,2013-07-29 11:54:00,
2013-07-29 07:07:00,63.0,60.0,30.05,North,360,0.0,-999.0,90,-99.99,,,-99.99,,2013-07-29 12:07:00,
2013-07-29 07:14:00,63.0,60.0,30.05,North,360,0.0,-999.0,91,-99.99,,,-99.99,,2013-07-29 12:14:00,
2013-07-29 07:25:00,63.0,60.0,30.05,North,360,0.0,-999.0,91,-99.99,,,-99.99,,2013-07-29 12:25:00,
2013-07-29 07:35:00,63.0,60.0,30.05,North,360,0.0,-999.0,91,-99.99,,,-99.99,,2013-07-29 12:35:00,
2013-07-29 07:44:00,62.0,60.0,30.05,North,351,0.0,-999.0,92,-99.99,,,-99.99,,2013-07-29 12:44:00,
2013-07-29 07:54:00,61.0,59.0,30.04,North,351,0.0,-999.0,92,-99.99,,,-99.99,,2013-07-29 12:54:00,
2013-07-29 08:25:00,62.0,60.0,30.04,North,350,0.0,-999.0,93,-99.99,,,-99.99,,2013-07-29 13:25:00,
2013-07-29 08:36:00,62.0,60.0,30.04,North,350,0.0,-999.0,93,-99.99,,,-99.99,,2013-07-29 13:36:00,
2013-07-29 08:54:00,63.0,61.0,30.04,North,350,0.0,-999.0,94,-99.99,,,-99.99,,2013-07-29 13:54:00,
2013-07-29 09:04:00,63.0,61.0,30.04,North,350,0.0,-999.0,94,-99.99,,,-99.99,,2013-07-29 14:04:00,
2013-07-29 09:12:00,64.0,62.0,30.04,North,350,0.0,-999.0,94,-99.99,,,-99.99,,2013-07-29 14:12:00,
2013-07-29 09:34:00,64.0,62.0,30.04,SW,219,0.0,-999.0,93,-99.99,,,-99.99,,2013-07-29 14:34:00,
2013-07-29 09:44:00,64.0,62.0,30.04,South,180,0.0,-999.0,92,-99.99,,,-99.99,,2013-07-29 14:44:00,
2013-07-29 09:54:00,64.0,61.0,30.04,South,180,0.0,-999.0,90,-99.99,,,-99.99,,2013-07-29 14:54:00,
2013-07-29 10:06:00,64.0,61.0,30.04,South,180,0.0,-999.0,90,-99.99,,,-99.99,,2013-07-29 15:06:00,
2013-07-29 10:13:00,65.0,62.0,30.04,South,178,0.0,-999.0,90,-99.99,,,-99.99,,2013-07-29 15:13:00,
2013-07-29 10:24:00,65.0,62.0,30.05,South,178,0.0,-999.0,90,-99.99,,,-99.99,,2013-07-29 15:24:00,
2013-07-29 10:36:00,65.0,62.0,30.05,South,178,0.0,-999.0,90,-99.99,,,-99.99,,2013-07-29 15:36:00,
2013-07-29 11:04:00,64.0,62.0,30.04,South,177,0.0,-999.0,92,-99.99,,,-99.99,,2013-07-29 16:04:00,
2013-07-29 11:13:00,64.0,62.0,30.04,South,177,0.0,-999.0,93,-99.99,,,-99.99,,2013-07-29 16:13:00,
2013-07-29 11:23:00,64.0,62.0,30.03,South,178,0.0,-999.0,93,-99.99,,,-99.99,,2013-07-29 16:23:00,
2013-07-29 11:36:00,64.0,62.0,30.03,South,178,0.0,-999.0,93,-99.99,,,-99.99,,2013-07-29 16:36:00,
2013-07-29 11:45:00,64.0,62.0,30.04,South,178,0.0,-999.0,93,-99.99,,,-99.99,,2013-07-29 16:45:00,
2013-07-29 12:07:00,64.0,62.0,30.03,South,180,0.0,-999.0,94,-99.99,,,-99.99,,2013-07-29 17:07:00,
2013-07-29 12:13:00,64.0,62.0,30.03,South,180,0.0,-999.0,94,-99.99,,,-99.99,,2013-07-29 17:13:00,
2013-07-29 12:23:00,64.0,62.0,30.04,South,181,0.0,-999.0,94,-99.99,,,-99.99,,2013-07-29 17:23:00,
2013-07-29 12:38:00,64.0,62.0,30.04,South,181,0.0,-999.0,94,-99.99,,,-99.99,,2013-07-29 17:38:00,
2013-07-29 12:44:00,64.0,62.0,30.04,South,182,0.0,-999.0,94,-99.99,,,-99.99,,2013-07-29 17:44:00,
2013-07-29 12:55:00,64.0,62.0,30.03,South,190,0.0,-999.0,94,-99.99,,,-99.99,,2013-07-29 17:55:00,
2013-07-29 13:05:00,64.0,62.0,30.03,South,190,0.0,-999.0,94,-99.99,,,-99.99,,2013-07-29 18:05:00,
2013-07-29 13:13:00,64.0,62.0,30.02,SSW,196,0.0,-999.0,94,-99.99,,,-99.99,,2013-07-29 18:13:00,
2013-07-29 13:24:00,64.0,63.0,30.01,SSW,192,0.0,-999.0,95,-99.99,,,-99.99,,2013-07-29 18:24:00,
2013-07-29 13:34:00,64.0,63.0,30.01,SSW,192,0.0,-999.0,95,-99.99,,,-99.99,,2013-07-29 18:34:00,
2013-07-29 14:03:00,65.0,64.0,30.01,South,180,0.0,-999.0,95,-99.99,,,-99.99,,2013-07-29 19:03:00,
2013-07-29 14:15:00,65.0,64.0,30.01,South,180,0.0,-999.0,95,-99.99,,,-99.99,,2013-07-29 19:15:00,
2013-07-29 14:25:00,64.0,63.0,29.98,SSE,161,3.0,-999.0,95,-99.99,,,-99.99,,2013-07-29 19:25:00,
2013-07-29 14:36:00,64.0,63.0,29.98,SSE,161,3.0,-999.0,95,-99.99,,,-99.99,,2013-07-29 19:36:00,
2013-07-29 14:48:00,64.0,63.0,29.98,SW,216,2.0,-999.0,95,-99.99,,,-99.99,,2013-07-29 19:48:00,
2013-07-29 14:58:00,64.0,63.0,29.99,South,189,0.0,-999.0,95,-99.99,,,-99.99,,2013-07-29 19:58:00,
2013-07-29 15:04:00,64.0,63.0,29.99,South,189,0.0,-999.0,95,-99.99,,,-99.99,,2013-07-29 20:04:00,
2013-07-29 15:15:00,65.0,64.0,29.98,ENE,74,1.0,-999.0,95,-99.99,,,-99.99,,2013-07-29 20:15:00,
2013-07-29 15:34:00,65.0,64.0,29.97,East,88,0.0,-999.0,95,-99.99,,,-99.99,,2013-07-29 20:34:00,
2013-07-29 15:47:00,65.0,64.0,29.97,East,88,0.0,-999.0,95,-99.99,,,-99.99,,2013-07-29 20:47:00,
2013-07-29 15:56:00,65.0,64.0,29.97,East,88,0.0,-999.0,95,-99.99,,,-99.99,,2013-07-29 20:56:00,
2013-07-29 16:04:00,65.0,64.0,30.01,NNW,330,0.0,-999.0,95,-99.99,,,-99.99,,2013-07-29 21:04:00,
2013-07-29 16:24:00,65.0,64.0,30.01,North,355,0.0,-999.0,95,-99.99,,,-99.99,,2013-07-29 21:24:00,
2013-07-29 16:34:00,65.0,64.0,30.01,North,355,0.0,-999.0,95,-99.99,,,-99.99,,2013-07-29 21:34:00,
2013-07-29 16:55:00,65.0,64.0,29.99,NNW,333,0.0,-999.0,95,-99.99,,,-99.99,,2013-07-29 21:55:00,
2013-07-29 17:04:00,65.0,64.0,29.99,NNW,333,0.0,-999.0,95,-99.99,,,-99.99,,2013-07-29 22:04:00,
2013-07-29 17:15:00,65.0,64.0,30.00,NNW,333,0.0,-999.0,95,-99.99,,,-99.99,,2013-07-29 22:15:00,
2013-07-29 17:24:00,65.0,64.0,29.99,NW,323,0.0,-999.0,95,-99.99,,,-99.99,,2013-07-29 22:24:00,
2013-07-29 17:36:00,65.0,64.0,29.99,NW,323,0.0,-999.0,95,-99.99,,,-99.99,,2013-07-29 22:36:00,
2013-07-29 17:43:00,66.0,65.0,29.98,WSW,255,0.0,-999.0,95,-99.99,,,-99.99,,2013-07-29 22:43:00,
2013-07-29 18:04:00,66.0,65.0,29.98,SSW,212,0.0,-999.0,95,-99.99,,,-99.99,,2013-07-29 23:04:00,
2013-07-29 18:13:00,67.0,66.0,29.97,South,173,0.0,-999.0,96,-99.99,,,-99.99,,2013-07-29 23:13:00,
2013-07-29 18:25:00,67.0,66.0,29.97,South,179,0.0,-999.0,96,-99.99,,,-99.99,,2013-07-29 23:25:00,
2013-07-29 18:34:00,67.0,66.0,29.97,South,179,0.0,-999.0,96,-99.99,,,-99.99,,2013-07-29 23:34:00,
2013-07-29 18:44:00,67.0,66.0,29.96,ESE,123,0.0,-999.0,96,-99.99,,,-99.99,,2013-07-29 23:44:00,
2013-07-29 18:53:00,66.0,65.0,29.96,SSE,168,0.0,-999.0,95,-99.99,,,-99.99,,2013-07-29 23:53:00,
2013-07-29 19:05:00,66.0,65.0,29.96,SSE,168,0.0,-999.0,95,-99.99,,,-99.99,,2013-07-30 00:05:00,
2013-07-29 19:16:00,66.0,65.0,29.96,South,174,0.0,-999.0,95,-99.99,,,-99.99,,2013-07-30 00:16:00,
2013-07-29 19:23:00,66.0,65.0,29.97,South,174,0.0,-999.0,95,-99.99,,,-99.99,,2013-07-30 00:23:00,
2013-07-29 19:34:00,66.0,65.0,29.97,South,174,0.0,-999.0,95,-99.99,,,-99.99,,2013-07-30 00:34:00,
2013-07-29 19:54:00,66.0,65.0,29.97,ESE,107,0.0,-999.0,96,-99.99,,,-99.99,,2013-07-30 00:54:00,
2013-07-29 20:05:00,66.0,65.0,29.97,ESE,107,0.0,-999.0,96,-99.99,,,-99.99,,2013-07-30 01:05:00,
2013-07-29 20:16:00,67.0,66.0,29.97,South,173,0.0,-999.0,96,-99.99,,,-99.99,,2013-07-30 01:16:00,
2013-07-29 20:23:00,67.0,66.0,29.97,WSW,241,0.0,-999.0,96,-99.99,,,-99.99,,2013-07-30 01:23:00,
2013-07-29 20:35:00,67.0,66.0,29.97,WSW,241,0.0,-999.0,96,-99.99,,,-99.99,,2013-07-30 01:35:00,
2013-07-29 20:44:00,66.0,65.0,29.97,SSE,147,0.0,-999.0,96,-99.99,,,-99.99,,2013-07-30 01:44:00,
2013-07-29 20:54:00,66.0,65.0,29.97,ESE,118,0.0,-999.0,96,-99.99,,,-99.99,,2013-07-30 01:54:00,
2013-07-29 21:05:00,66.0,65.0,29.97,ESE,118,0.0,-999.0,96,-99.99,,,-99.99,,2013-07-30 02:05:00,
2013-07-29 21:13:00,66.0,65.0,29.97,ESE,118,0.0,-999.0,96,-99.99,,,-99.99,,2013-07-30 02:13:00,
2013-07-29 21:23:00,67.0,66.0,29.97,SSE,155,0.0,-999.0,96,-99.99,,,-99.99,,2013-07-30 02:23:00,
2013-07-29 21:35:00,67.0,66.0,29.97,SSE,155,0.0,-999.0,96,-99.99,,,-99.99,,2013-07-30 02:35:00,
2013-07-29 21:45:00,67.0,66.0,29.98,South,182,0.0,-999.0,96,-99.99,,,-99.99,,2013-07-30 02:45:00,
2013-07-29 21:54:00,67.0,66.0,29.98,South,184,0.0,-999.0,96,-99.99,,,-99.99,,2013-07-30 02:54:00,
2013-07-29 22:17:00,67.0,66.0,29.98,South,188,0.0,-999.0,96,-99.99,,,-99.99,,2013-07-30 03:17:00,
2013-07-29 22:24:00,67.0,66.0,29.99,South,190,0.0,-999.0,96,-99.99,,,-99.99,,2013-07-30 03:24:00,
2013-07-29 22:34:00,67.0,66.0,29.99,South,190,0.0,-999.0,96,-99.99,,,-99.99,,2013-07-30 03:34:00,
2013-07-29 23:03:00,67.0,66.0,29.99,South,190,0.0,-999.0,96,-99.99,,,-99.99,,2013-07-30 04:03:00,
2013-07-29 23:12:00,67.0,66.0,29.98,South,190,0.0,-999.0,96,-99.99,,,-99.99,,2013-07-30 04:12:00,
2013-07-29 23:22:00,67.0,66.0,29.98,South,190,0.0,-999.0,96,-99.99,,,-99.99,,2013-07-30 04:22:00,
2013-07-29 23:33:00,67.0,66.0,29.98,South,190,0.0,-999.0,96,-99.99,,,-99.99,,2013-07-30 04:33:00,
2013-07-29 23:43:00,67.0,66.0,29.97,South,179,0.0,-999.0,96,-99.99,,,-99.99,,2013-07-30 04:43:00,
2013-07-29 23:52:00,67.0,66.0,29.98,South,179,0.0,-999.0,96,-99.99,,,-99.99,,2013-07-30 04:52:00,